Вернуться в каталог

METEOR 2-5 DEB

АктивенPO
NORAD 45511·DEBRIS·🇷🇺 Russia

Запущен Oct 31, 1979 с Plesetsk Cosmodrome

Loading…

Ближайшие Пролёты (ближайшие 24 часа)

TLE

СвежийSource: Space-Track

Эпоха: Sep 13, 2026, 21:22 UTC

1 45511U 79095CT  26256.89029812  .00002987  00000-0  12981-2 0  9995
2 45511  81.2170 119.4919 0010957 298.4517  61.5557 14.23892007452375

Отслеживайте METEOR 2-5 DEB в реальном времени с AllMySat

Download on the App Store